Location: Bondula
(6.3703°N, 10.6756°W)
Time: 02:35:20
(UTC+00:00)

GPS 2-14 Rocket1 - Pass Details

Date: 22 October 2019
Orbit: 477 x 543 km, 20.7° (Epoch: 21 November)

Event Time Altitude Azimuth Distance (km) Brightness Sun altitude
Exits shadow 06:02:29 - 305° (NW) 1,900 5.0 -7.3°
Reaches altitude 10° 06:03:09 10° 308° (NW) 1,652 4.7 -7.1°
Maximum altitude 06:06:44 39° 18° (NNE) 724 3.5 -6.2°
Drops below altitude 10° 06:10:17 10° 89° (E) 1,632 6.9 -5.4°
Sets 06:12:34 0° 97° (E) 2,507 9.1 -4.8°
